Find Starlink 1230

NORAD ID: 45189 Int'l Des: 2020-012 Owner: SPXS Country: US Constellation: starlink operational
LEOCIRCULAR

Live Position

Loading 3D Globe...

About Starlink 1230

Description loading...

Upcoming Passes

Passes for default location (London). Set your location on the main map for personalized predictions.

Altitude History

Loading altitude history...

Two-Line Element Set

1 45189U 20012M 26110.41764818 .00027626 00000-0 91696-3 0 9998
2 45189 53.1559 205.8593 0001628 31.7578 328.3521 15.31051048338553
Epoch: Apr 20, 2026 • Age: 13 hours

Current Status

Altitude 476.0 km
Velocity 7.63 km/s
Sub-Earth Point 43.83°N, 57.77°E
Launch Date Feb 17, 2020
Age 6.1 years
Type internet

Technical Details

Classification Payload
Mass 260.00 kg
Dry Mass 248.00 kg
Total Mass 260.00 kg
Length 0.20 m
Diameter 2.80 m
Span 9.00 m
Shape Box + pan
Manufacturer SPXS
Bus Type Starlink
Phase Status In Orbit
Owner/State SPXS/US

Most Searched